Time,TemperatureF,DewpointF,PressureIn,WindDirection,WindDirectionDegrees,WindSpeedMPH,WindSpeedGustMPH,Humidity,HourlyPrecipIn,Conditions,Clouds,dailyrainin,SolarRadiationWatts/m^2,SoftwareType,DateUTC
2013-01-13 00:03:00,-13.2,-18.8,29.79,SSE,156,3.0,0.0,75,0.00,,,0.00,0,WeatherHawk,2013-01-13 07:03:00,
2013-01-13 00:08:00,-12.8,-18.7,29.79,ESE,107,4.0,0.0,74,0.00,,,0.00,0,WeatherHawk,2013-01-13 07:08:00,
2013-01-13 00:13:00,-12.8,-18.7,29.79,SE,137,4.0,0.0,74,0.00,,,0.00,0,WeatherHawk,2013-01-13 07:13:00,
2013-01-13 00:18:00,-12.8,-19.2,29.79,SE,126,6.0,0.0,72,0.00,,,0.00,0,WeatherHawk,2013-01-13 07:18:00,
2013-01-13 00:23:00,-13.2,-19.3,29.79,ESE,111,6.0,0.0,73,0.00,,,0.00,0,WeatherHawk,2013-01-13 07:23:00,
2013-01-13 00:28:00,-12.8,-18.7,29.79,SSW,203,5.0,0.0,74,0.00,,,0.00,0,WeatherHawk,2013-01-13 07:28:00,
2013-01-13 00:33:00,-13.2,-20.1,29.79,SSE,151,4.0,0.0,70,0.00,,,0.00,0,WeatherHawk,2013-01-13 07:33:00,
2013-01-13 00:38:00,-13.2,-18.8,29.79,East,94,4.0,0.0,75,0.00,,,0.00,0,WeatherHawk,2013-01-13 07:38:00,
2013-01-13 00:43:00,-13.0,-19.9,29.79,ESE,115,6.0,0.0,70,0.00,,,0.00,0,WeatherHawk,2013-01-13 07:43:00,
2013-01-13 00:48:00,-13.7,-20.6,29.79,SSE,150,6.0,0.0,70,0.00,,,0.00,0,WeatherHawk,2013-01-13 07:48:00,
2013-01-13 00:53:00,-13.9,-20.3,29.79,ESE,107,4.0,0.0,72,0.00,,,0.00,0,WeatherHawk,2013-01-13 07:53:00,
2013-01-13 00:58:00,-12.8,-18.4,29.79,South,175,6.0,0.0,75,0.00,,,0.00,0,WeatherHawk,2013-01-13 07:58:00,
2013-01-13 01:03:00,-12.5,-18.6,29.79,ESE,110,5.0,0.0,73,0.00,,,0.00,1,WeatherHawk,2013-01-13 08:03:00,
2013-01-13 01:08:00,-12.1,-18.0,29.79,SE,134,4.0,0.0,74,0.00,,,0.00,0,WeatherHawk,2013-01-13 08:08:00,
2013-01-13 01:13:00,-13.2,-20.4,29.79,SSE,150,5.0,0.0,69,0.00,,,0.00,0,WeatherHawk,2013-01-13 08:13:00,
2013-01-13 01:18:00,-13.4,-19.2,29.79,ESE,119,4.0,0.0,74,0.00,,,0.00,0,WeatherHawk,2013-01-13 08:18:00,
2013-01-13 01:23:00,-12.6,-18.5,29.80,SSE,156,3.0,0.0,74,0.00,,,0.00,0,WeatherHawk,2013-01-13 08:23:00,
2013-01-13 01:28:00,-12.5,-18.4,29.80,East,84,5.0,0.0,74,0.00,,,0.00,0,WeatherHawk,2013-01-13 08:28:00,
2013-01-13 01:33:00,-12.3,-19.8,29.80,SSE,164,4.0,0.0,68,0.00,,,0.00,0,WeatherHawk,2013-01-13 08:33:00,
2013-01-13 01:38:00,-14.1,-20.7,29.80,SSE,156,4.0,0.0,71,0.00,,,0.00,0,WeatherHawk,2013-01-13 08:38:00,
2013-01-13 01:43:00,-13.4,-19.0,29.80,SE,132,6.0,0.0,75,0.00,,,0.00,0,WeatherHawk,2013-01-13 08:43:00,
2013-01-13 01:48:00,-12.6,-19.3,29.80,SSE,161,6.0,0.0,71,0.00,,,0.00,1,WeatherHawk,2013-01-13 08:48:00,
2013-01-13 01:53:00,-13.7,-19.6,29.80,SE,130,4.0,0.0,74,0.00,,,0.00,0,WeatherHawk,2013-01-13 08:53:00,
2013-01-13 01:58:00,-13.2,-19.6,29.80,SSE,151,4.0,0.0,72,0.00,,,0.00,0,WeatherHawk,2013-01-13 08:58:00,
2013-01-13 02:03:00,-13.7,-19.6,29.80,SE,141,6.0,0.0,74,0.00,,,0.00,0,WeatherHawk,2013-01-13 09:03:00,
2013-01-13 02:08:00,-13.4,-19.2,29.80,ESE,104,6.0,0.0,74,0.00,,,0.00,0,WeatherHawk,2013-01-13 09:08:00,
2013-01-13 02:13:00,-13.0,-19.4,29.80,South,170,5.0,0.0,72,0.00,,,0.00,0,WeatherHawk,2013-01-13 09:13:00,
2013-01-13 02:18:00,-13.2,-18.3,29.80,SE,137,4.0,0.0,77,0.00,,,0.00,0,WeatherHawk,2013-01-13 09:18:00,
2013-01-13 02:23:00,-13.4,-20.3,29.80,SE,144,5.0,0.0,70,0.00,,,0.00,0,WeatherHawk,2013-01-13 09:23:00,
2013-01-13 02:28:00,-14.1,-21.0,29.80,ESE,111,5.0,0.0,70,0.00,,,0.00,0,WeatherHawk,2013-01-13 09:28:00,
2013-01-13 02:33:00,-14.3,-20.9,29.80,SE,139,8.0,0.0,71,0.00,,,0.00,0,WeatherHawk,2013-01-13 09:33:00,
2013-01-13 02:38:00,-14.3,-20.9,29.80,SSE,163,5.0,0.0,71,0.00,,,0.00,0,WeatherHawk,2013-01-13 09:38:00,
2013-01-13 02:43:00,-14.6,-20.7,29.80,SE,126,6.0,0.0,73,0.00,,,0.00,0,WeatherHawk,2013-01-13 09:43:00,
2013-01-13 02:48:00,-14.4,-20.5,29.80,ESE,110,4.0,0.0,73,0.00,,,0.00,0,WeatherHawk,2013-01-13 09:48:00,
2013-01-13 02:53:00,-13.7,-18.8,29.79,ESE,116,5.0,0.0,77,0.00,,,0.00,0,WeatherHawk,2013-01-13 09:53:00,
2013-01-13 02:58:00,-14.6,-21.5,29.79,ESE,103,7.0,0.0,70,0.00,,,0.00,0,WeatherHawk,2013-01-13 09:58:00,
2013-01-13 03:03:00,-14.8,-20.4,29.79,SE,133,7.0,0.0,75,0.00,,,0.00,0,WeatherHawk,2013-01-13 10:03:00,
2013-01-13 03:08:00,-13.9,-19.5,29.79,East,100,4.0,0.0,75,0.00,,,0.00,0,WeatherHawk,2013-01-13 10:08:00,
2013-01-13 03:13:00,-13.4,-18.7,29.79,South,173,4.0,0.0,76,0.00,,,0.00,0,WeatherHawk,2013-01-13 10:13:00,
2013-01-13 03:18:00,-13.4,-19.5,29.79,ESE,116,5.0,0.0,73,0.00,,,0.00,0,WeatherHawk,2013-01-13 10:18:00,
2013-01-13 03:23:00,-13.2,-19.1,29.79,SSE,155,4.0,0.0,74,0.00,,,0.00,0,WeatherHawk,2013-01-13 10:23:00,
2013-01-13 03:28:00,-13.2,-20.1,29.79,ESE,122,7.0,0.0,70,0.00,,,0.00,0,WeatherHawk,2013-01-13 10:28:00,
2013-01-13 03:33:00,-13.7,-18.6,29.79,South,176,5.0,0.0,78,0.00,,,0.00,0,WeatherHawk,2013-01-13 10:33:00,
2013-01-13 03:38:00,-13.9,-19.8,29.79,ESE,114,6.0,0.0,74,0.00,,,0.00,0,WeatherHawk,2013-01-13 10:38:00,
2013-01-13 03:43:00,-14.8,-22.0,29.78,SE,145,5.0,0.0,69,0.00,,,0.00,0,WeatherHawk,2013-01-13 10:43:00,
2013-01-13 03:48:00,-14.6,-20.7,29.79,South,181,6.0,0.0,73,0.00,,,0.00,0,WeatherHawk,2013-01-13 10:48:00,
2013-01-13 03:53:00,-15.2,-21.2,29.78,ESE,111,7.0,0.0,73,0.00,,,0.00,0,WeatherHawk,2013-01-13 10:53:00,
2013-01-13 03:58:00,-14.3,-19.6,29.78,SE,140,5.0,0.0,76,0.00,,,0.00,0,WeatherHawk,2013-01-13 10:58:00,
2013-01-13 04:03:00,-13.9,-20.8,29.78,South,180,6.0,0.0,70,0.00,,,0.00,0,WeatherHawk,2013-01-13 11:03:00,
2013-01-13 04:08:00,-14.8,-20.9,29.78,SE,137,5.0,0.0,73,0.00,,,0.00,0,WeatherHawk,2013-01-13 11:08:00,
2013-01-13 04:13:00,-15.0,-21.6,29.78,East,100,6.0,0.0,71,0.00,,,0.00,0,WeatherHawk,2013-01-13 11:13:00,
2013-01-13 04:18:00,-13.7,-18.8,29.78,ESE,105,5.0,0.0,77,0.00,,,0.00,0,WeatherHawk,2013-01-13 11:18:00,
2013-01-13 04:23:00,-13.0,-17.9,29.78,ESE,111,4.0,0.0,78,0.00,,,0.00,0,WeatherHawk,2013-01-13 11:23:00,
2013-01-13 04:28:00,-13.7,-20.1,29.78,East,91,3.0,0.0,72,0.00,,,0.00,0,WeatherHawk,2013-01-13 11:28:00,
2013-01-13 04:33:00,-14.4,-21.6,29.78,ESE,114,8.0,0.0,69,0.00,,,0.00,0,WeatherHawk,2013-01-13 11:33:00,
2013-01-13 04:38:00,-15.0,-21.3,29.78,South,183,4.0,0.0,72,0.00,,,0.00,0,WeatherHawk,2013-01-13 11:38:00,
2013-01-13 04:43:00,-14.6,-20.5,29.78,ESE,113,5.0,0.0,74,0.00,,,0.00,0,WeatherHawk,2013-01-13 11:43:00,
2013-01-13 04:48:00,-13.5,-19.4,29.78,South,191,5.0,0.0,74,0.00,,,0.00,0,WeatherHawk,2013-01-13 11:48:00,
2013-01-13 04:53:00,-14.4,-20.5,29.78,East,89,4.0,0.0,73,0.00,,,0.00,0,WeatherHawk,2013-01-13 11:53:00,
2013-01-13 04:58:00,-13.7,-19.3,29.78,SE,137,4.0,0.0,75,0.00,,,0.00,0,WeatherHawk,2013-01-13 11:58:00,
2013-01-13 05:03:00,-12.8,-18.2,29.78,ENE,67,4.0,0.0,76,0.00,,,0.00,0,WeatherHawk,2013-01-13 12:03:00,
2013-01-13 05:08:00,-11.9,-17.8,29.78,WSW,242,5.0,0.0,74,0.00,,,0.00,0,WeatherHawk,2013-01-13 12:08:00,
2013-01-13 05:13:00,-12.5,-18.9,29.78,South,170,5.0,0.0,72,0.00,,,0.00,0,WeatherHawk,2013-01-13 12:13:00,
2013-01-13 05:18:00,-14.3,-21.4,29.78,SE,126,4.0,0.0,69,0.00,,,0.00,0,WeatherHawk,2013-01-13 12:18:00,
2013-01-13 05:23:00,-14.1,-20.2,29.78,East,98,6.0,0.0,73,0.00,,,0.00,0,WeatherHawk,2013-01-13 12:23:00,
2013-01-13 05:28:00,-13.2,-19.1,29.79,SE,134,5.0,0.0,74,0.00,,,0.00,0,WeatherHawk,2013-01-13 12:28:00,
2013-01-13 05:33:00,-12.8,-18.7,29.79,ESE,121,5.0,0.0,74,0.00,,,0.00,0,WeatherHawk,2013-01-13 12:33:00,
2013-01-13 05:38:00,-13.2,-20.4,29.79,SSW,204,4.0,0.0,69,0.00,,,0.00,0,WeatherHawk,2013-01-13 12:38:00,
2013-01-13 05:43:00,-14.4,-21.6,29.79,South,175,6.0,0.0,69,0.00,,,0.00,0,WeatherHawk,2013-01-13 12:43:00,
2013-01-13 05:48:00,-14.4,-20.5,29.79,East,86,4.0,0.0,73,0.00,,,0.00,0,WeatherHawk,2013-01-13 12:48:00,
2013-01-13 05:53:00,-13.7,-19.8,29.79,ENE,76,4.0,0.0,73,0.00,,,0.00,0,WeatherHawk,2013-01-13 12:53:00,
2013-01-13 05:58:00,-14.1,-20.5,29.79,SE,141,5.0,0.0,72,0.00,,,0.00,0,WeatherHawk,2013-01-13 12:58:00,
2013-01-13 06:03:00,-14.1,-20.2,29.79,SSE,150,6.0,0.0,73,0.00,,,0.00,0,WeatherHawk,2013-01-13 13:03:00,
2013-01-13 06:08:00,-13.9,-20.0,29.80,South,170,5.0,0.0,73,0.00,,,0.00,0,WeatherHawk,2013-01-13 13:08:00,
2013-01-13 06:13:00,-14.1,-20.5,29.80,SSE,151,5.0,0.0,72,0.00,,,0.00,0,WeatherHawk,2013-01-13 13:13:00,
2013-01-13 06:18:00,-13.9,-19.8,29.80,SSE,152,4.0,0.0,74,0.00,,,0.00,0,WeatherHawk,2013-01-13 13:18:00,
2013-01-13 06:23:00,-13.5,-19.4,29.80,ESE,105,6.0,0.0,74,0.00,,,0.00,0,WeatherHawk,2013-01-13 13:23:00,
2013-01-13 06:28:00,-13.2,-19.1,29.80,ENE,77,4.0,0.0,74,0.00,,,0.00,0,WeatherHawk,2013-01-13 13:28:00,
2013-01-13 06:33:00,-12.8,-19.0,29.80,South,190,5.0,0.0,73,0.00,,,0.00,0,WeatherHawk,2013-01-13 13:33:00,
2013-01-13 06:38:00,-14.4,-21.9,29.80,South,171,6.0,0.0,68,0.00,,,0.00,0,WeatherHawk,2013-01-13 13:38:00,
2013-01-13 06:43:00,-15.9,-23.0,29.80,ESE,118,5.0,0.0,69,0.00,,,0.00,0,WeatherHawk,2013-01-13 13:43:00,
2013-01-13 06:48:00,-14.8,-19.4,29.80,SSE,154,4.0,0.0,79,0.00,,,0.00,0,WeatherHawk,2013-01-13 13:48:00,
2013-01-13 06:53:00,-15.3,-21.9,29.81,ESE,108,9.0,0.0,71,0.00,,,0.00,0,WeatherHawk,2013-01-13 13:53:00,
2013-01-13 06:58:00,-15.0,-20.8,29.81,SE,133,7.0,0.0,74,0.00,,,0.00,0,WeatherHawk,2013-01-13 13:58:00,
2013-01-13 07:03:00,-13.9,-19.8,29.81,SSE,154,4.0,0.0,74,0.00,,,0.00,0,WeatherHawk,2013-01-13 14:03:00,
2013-01-13 07:08:00,-13.5,-19.7,29.81,SSE,159,3.0,0.0,73,0.00,,,0.00,0,WeatherHawk,2013-01-13 14:08:00,
2013-01-13 07:13:00,-14.1,-20.2,29.81,ESE,118,5.0,0.0,73,0.00,,,0.00,0,WeatherHawk,2013-01-13 14:13:00,
2013-01-13 07:18:00,-14.1,-20.5,29.82,South,175,5.0,0.0,72,0.00,,,0.00,1,WeatherHawk,2013-01-13 14:18:00,
2013-01-13 07:23:00,-14.4,-21.9,29.82,SE,145,5.0,0.0,68,0.00,,,0.00,2,WeatherHawk,2013-01-13 14:23:00,
2013-01-13 07:28:00,-15.0,-21.6,29.81,SE,144,4.0,0.0,71,0.00,,,0.00,5,WeatherHawk,2013-01-13 14:28:00,
2013-01-13 07:33:00,-14.3,-20.1,29.82,SSE,152,4.0,0.0,74,0.00,,,0.00,9,WeatherHawk,2013-01-13 14:33:00,
2013-01-13 07:38:00,-14.3,-20.9,29.82,SE,143,4.0,0.0,71,0.00,,,0.00,8,WeatherHawk,2013-01-13 14:38:00,
2013-01-13 07:43:00,-13.7,-19.6,29.82,ESE,121,4.0,0.0,74,0.00,,,0.00,9,WeatherHawk,2013-01-13 14:43:00,
2013-01-13 07:48:00,-13.4,-19.8,29.82,SE,144,4.0,0.0,72,0.00,,,0.00,19,WeatherHawk,2013-01-13 14:48:00,
2013-01-13 07:53:00,-13.4,-19.5,29.82,ESE,111,5.0,0.0,73,0.00,,,0.00,28,WeatherHawk,2013-01-13 14:53:00,
2013-01-13 07:58:00,-12.6,-18.5,29.82,SSE,157,3.0,0.0,74,0.00,,,0.00,35,WeatherHawk,2013-01-13 14:58:00,
2013-01-13 08:03:00,-12.1,-18.3,29.82,East,90,3.0,0.0,73,0.00,,,0.00,53,WeatherHawk,2013-01-13 15:03:00,
2013-01-13 08:08:00,-12.3,-19.8,29.82,NNW,328,5.0,0.0,68,0.00,,,0.00,62,WeatherHawk,2013-01-13 15:08:00,
2013-01-13 08:13:00,-11.9,-19.2,29.82,NNW,332,4.0,0.0,69,0.00,,,0.00,67,WeatherHawk,2013-01-13 15:13:00,
2013-01-13 08:18:00,-12.5,-20.6,29.82,SE,141,2.0,0.0,66,0.00,,,0.00,55,WeatherHawk,2013-01-13 15:18:00,
2013-01-13 08:23:00,-12.8,-20.3,29.83,South,182,4.0,0.0,68,0.00,,,0.00,53,WeatherHawk,2013-01-13 15:23:00,
2013-01-13 08:28:00,-12.6,-19.6,29.83,SE,136,4.0,0.0,70,0.00,,,0.00,44,WeatherHawk,2013-01-13 15:28:00,
2013-01-13 08:33:00,-12.1,-18.8,29.83,SSE,147,4.0,0.0,71,0.00,,,0.00,39,WeatherHawk,2013-01-13 15:33:00,
2013-01-13 08:38:00,-11.4,-17.8,29.83,ESE,104,4.0,0.0,72,0.00,,,0.00,32,WeatherHawk,2013-01-13 15:38:00,
2013-01-13 08:43:00,-11.0,-17.8,29.83,ESE,119,2.0,0.0,71,0.00,,,0.00,30,WeatherHawk,2013-01-13 15:43:00,
2013-01-13 08:48:00,-10.7,-17.4,29.83,South,171,3.0,0.0,71,0.00,,,0.00,32,WeatherHawk,2013-01-13 15:48:00,
2013-01-13 08:53:00,-10.5,-17.0,29.83,ESE,114,2.0,0.0,72,0.00,,,0.00,90,WeatherHawk,2013-01-13 15:53:00,
2013-01-13 08:58:00,-9.0,-14.5,29.82,East,95,3.0,0.0,76,0.00,,,0.00,157,WeatherHawk,2013-01-13 15:58:00,
2013-01-13 09:03:00,-7.1,-14.8,29.82,NW,305,3.0,0.0,68,0.00,,,0.00,143,WeatherHawk,2013-01-13 16:03:00,
2013-01-13 09:08:00,-6.3,-13.0,29.82,NE,49,3.0,0.0,72,0.00,,,0.00,172,WeatherHawk,2013-01-13 16:08:00,
2013-01-13 09:13:00,-5.3,-11.7,29.82,SE,126,3.0,0.0,73,0.00,,,0.00,165,WeatherHawk,2013-01-13 16:13:00,
2013-01-13 09:18:00,-4.2,-14.5,29.82,West,275,3.0,0.0,60,0.00,,,0.00,175,WeatherHawk,2013-01-13 16:18:00,
2013-01-13 09:23:00,-4.5,-13.6,29.82,NW,309,4.0,0.0,64,0.00,,,0.00,171,WeatherHawk,2013-01-13 16:23:00,
2013-01-13 09:28:00,-3.6,-14.3,29.82,NW,316,3.0,0.0,59,0.00,,,0.00,186,WeatherHawk,2013-01-13 16:28:00,
2013-01-13 09:33:00,-3.5,-13.8,29.81,NNW,340,3.0,0.0,60,0.00,,,0.00,197,WeatherHawk,2013-01-13 16:33:00,
2013-01-13 09:38:00,-2.9,-13.6,29.82,West,280,4.0,0.0,59,0.00,,,0.00,214,WeatherHawk,2013-01-13 16:38:00,
2013-01-13 09:43:00,-3.3,-14.3,29.82,SW,224,5.0,0.0,58,0.00,,,0.00,214,WeatherHawk,2013-01-13 16:43:00,
2013-01-13 09:48:00,-2.4,-11.2,29.82,WSW,252,4.0,0.0,65,0.00,,,0.00,226,WeatherHawk,2013-01-13 16:48:00,
2013-01-13 09:53:00,-0.9,-11.4,29.82,ENE,76,2.0,0.0,60,0.00,,,0.00,236,WeatherHawk,2013-01-13 16:53:00,
2013-01-13 09:58:00,0.1,-12.9,29.82,WNW,302,5.0,0.0,53,0.00,,,0.00,195,WeatherHawk,2013-01-13 16:58:00,
2013-01-13 10:03:00,-0.2,-12.1,29.82,North,11,2.0,0.0,56,0.00,,,0.00,146,WeatherHawk,2013-01-13 17:03:00,
2013-01-13 10:08:00,-0.2,-12.9,29.82,NW,318,2.0,0.0,54,0.00,,,0.00,257,WeatherHawk,2013-01-13 17:08:00,
2013-01-13 10:13:00,0.5,-12.6,29.81,WNW,292,4.0,0.0,53,0.00,,,0.00,260,WeatherHawk,2013-01-13 17:13:00,
2013-01-13 10:18:00,0.1,-12.9,29.81,NNW,334,3.0,0.0,53,0.00,,,0.00,275,WeatherHawk,2013-01-13 17:18:00,
2013-01-13 10:23:00,0.7,-11.6,29.81,North,353,3.0,0.0,55,0.00,,,0.00,292,WeatherHawk,2013-01-13 17:23:00,
2013-01-13 10:28:00,1.4,-12.9,29.81,NW,308,2.0,0.0,50,0.00,,,0.00,302,WeatherHawk,2013-01-13 17:28:00,
2013-01-13 10:33:00,2.1,-12.6,29.81,NE,40,3.0,0.0,49,0.00,,,0.00,321,WeatherHawk,2013-01-13 17:33:00,
2013-01-13 10:38:00,2.7,-12.5,29.81,NNW,342,2.0,0.0,48,0.00,,,0.00,339,WeatherHawk,2013-01-13 17:38:00,
2013-01-13 10:43:00,2.7,-13.8,29.80,SW,236,4.0,0.0,45,0.00,,,0.00,348,WeatherHawk,2013-01-13 17:43:00,
2013-01-13 10:48:00,3.0,-14.4,29.80,North,7,4.0,0.0,43,0.00,,,0.00,338,WeatherHawk,2013-01-13 17:48:00,
2013-01-13 10:53:00,3.7,-14.6,29.80,NE,39,2.0,0.0,41,0.00,,,0.00,216,WeatherHawk,2013-01-13 17:53:00,
2013-01-13 10:58:00,5.4,-14.2,29.80,WNW,287,3.0,0.0,39,0.00,,,0.00,302,WeatherHawk,2013-01-13 17:58:00,
2013-01-13 11:03:00,4.8,-16.2,29.80,NW,310,5.0,0.0,36,0.00,,,0.00,319,WeatherHawk,2013-01-13 18:03:00,
2013-01-13 11:08:00,4.5,-15.5,29.79,North,359,2.0,0.0,38,0.00,,,0.00,294,WeatherHawk,2013-01-13 18:08:00,
2013-01-13 11:13:00,4.1,-16.9,29.79,NW,326,5.0,0.0,36,0.00,,,0.00,324,WeatherHawk,2013-01-13 18:13:00,
2013-01-13 11:18:00,4.1,-15.8,29.79,NNW,342,2.0,0.0,38,0.00,,,0.00,399,WeatherHawk,2013-01-13 18:18:00,
2013-01-13 11:23:00,5.0,-15.5,29.79,North,6,3.0,0.0,37,0.00,,,0.00,307,WeatherHawk,2013-01-13 18:23:00,
2013-01-13 11:28:00,4.3,-16.2,29.79,ENE,76,4.0,0.0,37,0.00,,,0.00,191,WeatherHawk,2013-01-13 18:28:00,
2013-01-13 11:33:00,4.5,-16.0,29.78,NNW,337,5.0,0.0,37,0.00,,,0.00,181,WeatherHawk,2013-01-13 18:33:00,
2013-01-13 11:38:00,3.7,-16.1,29.78,ENE,60,2.0,0.0,38,0.00,,,0.00,182,WeatherHawk,2013-01-13 18:38:00,
2013-01-13 11:43:00,3.9,-17.0,29.78,North,349,7.0,0.0,36,0.00,,,0.00,128,WeatherHawk,2013-01-13 18:43:00,
2013-01-13 11:48:00,3.9,-16.5,29.78,NNE,13,2.0,0.0,37,0.00,,,0.00,128,WeatherHawk,2013-01-13 18:48:00,
2013-01-13 11:53:00,3.7,-16.7,29.78,NW,320,6.0,0.0,37,0.00,,,0.00,127,WeatherHawk,2013-01-13 18:53:00,
2013-01-13 11:58:00,3.7,-16.7,29.78,ENE,77,1.0,0.0,37,0.00,,,0.00,129,WeatherHawk,2013-01-13 18:58:00,
2013-01-13 12:03:00,3.9,-17.0,29.78,ENE,61,3.0,0.0,36,0.00,,,0.00,144,WeatherHawk,2013-01-13 19:03:00,
2013-01-13 12:08:00,3.6,-15.3,29.78,East,88,2.0,0.0,40,0.00,,,0.00,153,WeatherHawk,2013-01-13 19:08:00,
2013-01-13 12:13:00,3.7,-16.1,29.77,ESE,112,2.0,0.0,38,0.00,,,0.00,206,WeatherHawk,2013-01-13 19:13:00,
2013-01-13 12:18:00,4.5,-15.0,29.77,East,90,2.0,0.0,39,0.00,,,0.00,182,WeatherHawk,2013-01-13 19:18:00,
2013-01-13 12:23:00,4.8,-14.6,29.77,NNE,20,4.0,0.0,39,0.00,,,0.00,165,WeatherHawk,2013-01-13 19:23:00,
2013-01-13 12:28:00,4.5,-14.5,29.77,NNE,14,2.0,0.0,40,0.00,,,0.00,153,WeatherHawk,2013-01-13 19:28:00,
2013-01-13 12:33:00,4.5,-14.5,29.77,ENE,68,2.0,0.0,40,0.00,,,0.00,156,WeatherHawk,2013-01-13 19:33:00,
2013-01-13 12:38:00,4.6,-15.3,29.77,NNW,348,5.0,0.0,38,0.00,,,0.00,149,WeatherHawk,2013-01-13 19:38:00,
2013-01-13 12:43:00,3.7,-14.2,29.76,South,188,2.0,0.0,42,0.00,,,0.00,136,WeatherHawk,2013-01-13 19:43:00,
2013-01-13 12:48:00,4.5,-13.5,29.76,ENE,68,2.0,0.0,42,0.00,,,0.00,138,WeatherHawk,2013-01-13 19:48:00,
2013-01-13 12:53:00,5.0,-13.0,29.77,East,85,1.0,0.0,42,0.00,,,0.00,147,WeatherHawk,2013-01-13 19:53:00,
2013-01-13 12:58:00,5.7,-13.8,29.77,East,92,2.0,0.0,39,0.00,,,0.00,145,WeatherHawk,2013-01-13 19:58:00,
2013-01-13 13:03:00,5.4,-15.7,29.77,NNW,327,4.0,0.0,36,0.00,,,0.00,142,WeatherHawk,2013-01-13 20:03:00,
2013-01-13 13:08:00,5.0,-15.5,29.77,NNE,22,2.0,0.0,37,0.00,,,0.00,136,WeatherHawk,2013-01-13 20:08:00,
2013-01-13 13:13:00,4.8,-15.7,29.77,North,11,2.0,0.0,37,0.00,,,0.00,131,WeatherHawk,2013-01-13 20:13:00,
2013-01-13 13:18:00,5.4,-15.2,29.77,NW,322,4.0,0.0,37,0.00,,,0.00,129,WeatherHawk,2013-01-13 20:18:00,
2013-01-13 13:23:00,4.8,-15.7,29.77,NW,319,7.0,0.0,37,0.00,,,0.00,117,WeatherHawk,2013-01-13 20:23:00,
2013-01-13 13:28:00,4.5,-13.5,29.77,North,351,2.0,0.0,42,0.00,,,0.00,110,WeatherHawk,2013-01-13 20:28:00,
2013-01-13 13:33:00,4.1,-11.2,29.77,NW,308,5.0,0.0,48,0.00,,,0.00,111,WeatherHawk,2013-01-13 20:33:00,
2013-01-13 13:38:00,3.4,-9.9,29.77,NW,308,4.0,0.0,53,0.00,,,0.00,137,WeatherHawk,2013-01-13 20:38:00,
2013-01-13 13:43:00,3.6,-9.3,29.77,NW,312,3.0,0.0,54,0.00,,,0.00,143,WeatherHawk,2013-01-13 20:43:00,
2013-01-13 13:48:00,4.1,-8.4,29.77,West,266,3.0,0.0,55,0.00,,,0.00,161,WeatherHawk,2013-01-13 20:48:00,
2013-01-13 13:53:00,4.1,-8.4,29.77,NW,321,4.0,0.0,55,0.00,,,0.00,157,WeatherHawk,2013-01-13 20:53:00,
2013-01-13 13:58:00,3.9,-9.4,29.77,NNW,329,4.0,0.0,53,0.00,,,0.00,157,WeatherHawk,2013-01-13 20:58:00,
2013-01-13 14:03:00,4.3,-8.6,29.77,NW,321,2.0,0.0,54,0.00,,,0.00,168,WeatherHawk,2013-01-13 21:03:00,
2013-01-13 14:08:00,4.6,-8.7,29.77,NE,42,2.0,0.0,53,0.00,,,0.00,174,WeatherHawk,2013-01-13 21:08:00,
2013-01-13 14:13:00,5.0,-9.9,29.77,North,11,4.0,0.0,49,0.00,,,0.00,156,WeatherHawk,2013-01-13 21:13:00,
2013-01-13 14:18:00,4.5,-9.6,29.77,North,1,3.0,0.0,51,0.00,,,0.00,163,WeatherHawk,2013-01-13 21:18:00,
2013-01-13 14:23:00,5.0,-9.5,29.77,NNW,327,3.0,0.0,50,0.00,,,0.00,167,WeatherHawk,2013-01-13 21:23:00,
2013-01-13 14:28:00,5.0,-10.4,29.77,North,358,3.0,0.0,48,0.00,,,0.00,141,WeatherHawk,2013-01-13 21:28:00,
2013-01-13 14:33:00,4.8,-10.1,29.77,NNW,337,2.0,0.0,49,0.00,,,0.00,122,WeatherHawk,2013-01-13 21:33:00,
2013-01-13 14:38:00,5.2,-10.2,29.77,NNW,340,2.0,0.0,48,0.00,,,0.00,137,WeatherHawk,2013-01-13 21:38:00,
2013-01-13 14:43:00,5.2,-9.4,29.77,ENE,72,2.0,0.0,50,0.00,,,0.00,135,WeatherHawk,2013-01-13 21:43:00,
2013-01-13 14:48:00,5.2,-9.8,29.78,North,1,2.0,0.0,49,0.00,,,0.00,122,WeatherHawk,2013-01-13 21:48:00,
2013-01-13 14:53:00,5.4,-10.0,29.78,NNW,337,2.0,0.0,48,0.00,,,0.00,131,WeatherHawk,2013-01-13 21:53:00,
2013-01-13 14:58:00,5.0,-10.8,29.78,NW,317,6.0,0.0,47,0.00,,,0.00,110,WeatherHawk,2013-01-13 21:58:00,
2013-01-13 15:03:00,5.2,-10.2,29.78,West,270,2.0,0.0,48,0.00,,,0.00,95,WeatherHawk,2013-01-13 22:03:00,
2013-01-13 15:08:00,5.2,-10.2,29.78,WNW,295,4.0,0.0,48,0.00,,,0.00,94,WeatherHawk,2013-01-13 22:08:00,
2013-01-13 15:13:00,4.6,-9.5,29.78,NW,305,4.0,0.0,51,0.00,,,0.00,86,WeatherHawk,2013-01-13 22:13:00,
2013-01-13 15:18:00,4.5,-9.2,29.78,NW,310,3.0,0.0,52,0.00,,,0.00,75,WeatherHawk,2013-01-13 22:18:00,
2013-01-13 15:23:00,4.5,-8.9,29.79,WNW,302,5.0,0.0,53,0.00,,,0.00,71,WeatherHawk,2013-01-13 22:23:00,
2013-01-13 15:28:00,4.1,-7.7,29.79,NNW,328,4.0,0.0,57,0.00,,,0.00,88,WeatherHawk,2013-01-13 22:28:00,
2013-01-13 15:33:00,4.1,-7.4,29.79,NNE,27,2.0,0.0,58,0.00,,,0.00,73,WeatherHawk,2013-01-13 22:33:00,
2013-01-13 15:38:00,4.5,-8.1,29.79,North,359,3.0,0.0,55,0.00,,,0.00,80,WeatherHawk,2013-01-13 22:38:00,
2013-01-13 15:43:00,4.6,-7.6,29.79,East,85,1.0,0.0,56,0.00,,,0.00,69,WeatherHawk,2013-01-13 22:43:00,
2013-01-13 15:48:00,5.2,-8.2,29.79,ENE,72,1.0,0.0,53,0.00,,,0.00,68,WeatherHawk,2013-01-13 22:48:00,
2013-01-13 15:53:00,4.8,-8.1,29.79,SSE,164,3.0,0.0,54,0.00,,,0.00,40,WeatherHawk,2013-01-13 22:53:00,
2013-01-13 15:58:00,3.9,-9.0,29.79,South,181,2.0,0.0,54,0.00,,,0.00,41,WeatherHawk,2013-01-13 22:58:00,
2013-01-13 16:03:00,4.3,-8.6,29.79,NW,309,4.0,0.0,54,0.00,,,0.00,42,WeatherHawk,2013-01-13 23:03:00,
2013-01-13 16:08:00,4.3,-8.3,29.79,NW,311,3.0,0.0,55,0.00,,,0.00,36,WeatherHawk,2013-01-13 23:08:00,
2013-01-13 16:13:00,4.3,-8.3,29.79,WNW,296,2.0,0.0,55,0.00,,,0.00,29,WeatherHawk,2013-01-13 23:13:00,
2013-01-13 16:18:00,4.1,-8.1,29.79,SSE,164,1.0,0.0,56,0.00,,,0.00,26,WeatherHawk,2013-01-13 23:18:00,
2013-01-13 16:23:00,3.9,-8.2,29.79,WNW,299,3.0,0.0,56,0.00,,,0.00,24,WeatherHawk,2013-01-13 23:23:00,
2013-01-13 16:28:00,3.4,-8.0,29.79,NNW,343,3.0,0.0,58,0.00,,,0.00,22,WeatherHawk,2013-01-13 23:28:00,
2013-01-13 16:33:00,3.0,-8.0,29.79,NNE,31,2.0,0.0,59,0.00,,,0.00,19,WeatherHawk,2013-01-13 23:33:00,
2013-01-13 16:38:00,3.2,-7.9,29.79,NNE,28,2.0,0.0,59,0.00,,,0.00,14,WeatherHawk,2013-01-13 23:38:00,
2013-01-13 16:43:00,3.4,-8.4,29.80,NNW,339,3.0,0.0,57,0.00,,,0.00,11,WeatherHawk,2013-01-13 23:43:00,
2013-01-13 16:48:00,3.4,-8.0,29.80,NNE,22,2.0,0.0,58,0.00,,,0.00,8,WeatherHawk,2013-01-13 23:48:00,
2013-01-13 16:53:00,3.2,-9.7,29.80,SSW,199,2.0,0.0,54,0.00,,,0.00,5,WeatherHawk,2013-01-13 23:53:00,
2013-01-13 16:58:00,3.0,-8.7,29.80,West,261,2.0,0.0,57,0.00,,,0.00,2,WeatherHawk,2013-01-13 23:58:00,
2013-01-13 17:03:00,2.8,-8.5,29.80,NNW,343,5.0,0.0,58,0.00,,,0.00,0,WeatherHawk,2013-01-14 00:03:00,
2013-01-13 17:08:00,2.5,-8.2,29.80,NNE,13,4.0,0.0,60,0.00,,,0.00,0,WeatherHawk,2013-01-14 00:08:00,
2013-01-13 17:13:00,1.8,-8.9,29.80,NE,48,3.0,0.0,60,0.00,,,0.00,1,WeatherHawk,2013-01-14 00:13:00,
2013-01-13 17:18:00,1.8,-8.9,29.80,NNE,17,3.0,0.0,60,0.00,,,0.00,0,WeatherHawk,2013-01-14 00:18:00,
2013-01-13 17:23:00,1.9,-8.4,29.80,NNW,331,4.0,0.0,61,0.00,,,0.00,0,WeatherHawk,2013-01-14 00:23:00,
2013-01-13 17:28:00,1.9,-8.4,29.80,NNW,334,6.0,0.0,61,0.00,,,0.00,0,WeatherHawk,2013-01-14 00:28:00,
2013-01-13 17:33:00,1.8,-8.2,29.80,NNW,330,7.0,0.0,62,0.00,,,0.00,0,WeatherHawk,2013-01-14 00:33:00,
2013-01-13 17:38:00,1.6,-8.4,29.80,North,9,2.0,0.0,62,0.00,,,0.00,0,WeatherHawk,2013-01-14 00:38:00,
2013-01-13 17:43:00,1.6,-7.7,29.80,NE,37,1.0,0.0,64,0.00,,,0.00,0,WeatherHawk,2013-01-14 00:43:00,
2013-01-13 17:48:00,1.6,-8.1,29.81,North,356,3.0,0.0,63,0.00,,,0.00,0,WeatherHawk,2013-01-14 00:48:00,
2013-01-13 17:53:00,1.6,-7.7,29.81,North,6,3.0,0.0,64,0.00,,,0.00,0,WeatherHawk,2013-01-14 00:53:00,
2013-01-13 17:58:00,1.4,-7.9,29.81,NNW,335,3.0,0.0,64,0.00,,,0.00,1,WeatherHawk,2013-01-14 00:58:00,
2013-01-13 18:03:00,1.6,-7.1,29.81,North,4,2.0,0.0,66,0.00,,,0.00,0,WeatherHawk,2013-01-14 01:03:00,
2013-01-13 18:08:00,1.6,-7.1,29.81,North,351,4.0,0.0,66,0.00,,,0.00,0,WeatherHawk,2013-01-14 01:08:00,
2013-01-13 18:13:00,1.4,-7.0,29.81,NNW,344,4.0,0.0,67,0.00,,,0.00,0,WeatherHawk,2013-01-14 01:13:00,
2013-01-13 18:18:00,0.9,-6.9,29.82,NW,309,3.0,0.0,69,0.00,,,0.00,0,WeatherHawk,2013-01-14 01:18:00,
2013-01-13 18:23:00,0.7,-6.8,29.82,NNW,345,4.0,0.0,70,0.00,,,0.00,0,WeatherHawk,2013-01-14 01:23:00,
2013-01-13 18:28:00,0.1,-7.3,29.82,SE,126,3.0,0.0,70,0.00,,,0.00,0,WeatherHawk,2013-01-14 01:28:00,
2013-01-13 18:33:00,-0.4,-7.5,29.82,East,100,2.0,0.0,71,0.00,,,0.00,0,WeatherHawk,2013-01-14 01:33:00,
2013-01-13 18:38:00,-0.6,-7.4,29.82,ENE,77,2.0,0.0,72,0.00,,,0.00,0,WeatherHawk,2013-01-14 01:38:00,
2013-01-13 18:43:00,-0.9,-8.0,29.82,SE,137,5.0,0.0,71,0.00,,,0.00,0,WeatherHawk,2013-01-14 01:43:00,
2013-01-13 18:48:00,-1.3,-8.4,29.82,SE,132,4.0,0.0,71,0.00,,,0.00,0,WeatherHawk,2013-01-14 01:48:00,
2013-01-13 18:53:00,-1.7,-8.7,29.82,ESE,112,4.0,0.0,71,0.00,,,0.00,0,WeatherHawk,2013-01-14 01:53:00,
2013-01-13 18:58:00,-2.0,-9.1,29.82,SE,125,5.0,0.0,71,0.00,,,0.00,0,WeatherHawk,2013-01-14 01:58:00,
2013-01-13 19:03:00,-2.0,-8.8,29.82,ESE,109,4.0,0.0,72,0.00,,,0.00,0,WeatherHawk,2013-01-14 02:03:00,
2013-01-13 19:08:00,-2.2,-8.7,29.82,ESE,122,4.0,0.0,73,0.00,,,0.00,1,WeatherHawk,2013-01-14 02:08:00,
2013-01-13 19:13:00,-2.2,-9.0,29.82,East,88,3.0,0.0,72,0.00,,,0.00,0,WeatherHawk,2013-01-14 02:13:00,
2013-01-13 19:18:00,-2.2,-9.0,29.82,SE,132,4.0,0.0,72,0.00,,,0.00,0,WeatherHawk,2013-01-14 02:18:00,
2013-01-13 19:23:00,-2.4,-9.1,29.82,ESE,122,3.0,0.0,72,0.00,,,0.00,0,WeatherHawk,2013-01-14 02:23:00,
2013-01-13 19:28:00,-2.7,-9.8,29.82,NE,41,2.0,0.0,71,0.00,,,0.00,0,WeatherHawk,2013-01-14 02:28:00,
2013-01-13 19:33:00,-3.1,-10.4,29.82,SSE,163,2.0,0.0,70,0.00,,,0.00,1,WeatherHawk,2013-01-14 02:33:00,
2013-01-13 19:38:00,-3.3,-10.6,29.83,SSE,162,2.0,0.0,70,0.00,,,0.00,0,WeatherHawk,2013-01-14 02:38:00,
2013-01-13 19:43:00,-3.3,-10.9,29.83,SE,128,1.0,0.0,69,0.00,,,0.00,0,WeatherHawk,2013-01-14 02:43:00,
2013-01-13 19:48:00,-3.5,-10.8,29.83,SE,136,5.0,0.0,70,0.00,,,0.00,0,WeatherHawk,2013-01-14 02:48:00,
2013-01-13 19:53:00,-3.1,-10.1,29.83,ESE,117,3.0,0.0,71,0.00,,,0.00,0,WeatherHawk,2013-01-14 02:53:00,
2013-01-13 19:58:00,-2.9,-9.9,29.83,North,353,3.0,0.0,71,0.00,,,0.00,0,WeatherHawk,2013-01-14 02:58:00,
2013-01-13 20:03:00,-2.9,-9.9,29.83,NE,39,1.0,0.0,71,0.00,,,0.00,0,WeatherHawk,2013-01-14 03:03:00,
2013-01-13 20:08:00,-3.3,-10.9,29.83,ESE,102,2.0,0.0,69,0.00,,,0.00,1,WeatherHawk,2013-01-14 03:08:00,
2013-01-13 20:13:00,-4.2,-11.4,29.83,ESE,115,2.0,0.0,70,0.00,,,0.00,0,WeatherHawk,2013-01-14 03:13:00,
2013-01-13 20:18:00,-3.6,-10.6,29.83,East,95,2.0,0.0,71,0.00,,,0.00,0,WeatherHawk,2013-01-14 03:18:00,
2013-01-13 20:23:00,-3.1,-9.8,29.83,ESE,121,3.0,0.0,72,0.00,,,0.00,0,WeatherHawk,2013-01-14 03:23:00,
2013-01-13 20:28:00,-3.8,-11.4,29.83,ESE,120,2.0,0.0,69,0.00,,,0.00,0,WeatherHawk,2013-01-14 03:28:00,
2013-01-13 20:33:00,-4.4,-11.6,29.83,West,259,3.0,0.0,70,0.00,,,0.00,0,WeatherHawk,2013-01-14 03:33:00,
2013-01-13 20:38:00,-4.7,-12.3,29.83,ESE,104,1.0,0.0,69,0.00,,,0.00,0,WeatherHawk,2013-01-14 03:38:00,
2013-01-13 20:43:00,-4.7,-11.7,29.83,South,170,2.0,0.0,71,0.00,,,0.00,0,WeatherHawk,2013-01-14 03:43:00,
2013-01-13 20:48:00,-4.5,-11.2,29.83,ESE,111,3.0,0.0,72,0.00,,,0.00,1,WeatherHawk,2013-01-14 03:48:00,
2013-01-13 20:53:00,-4.4,-11.3,29.83,East,94,3.0,0.0,71,0.00,,,0.00,0,WeatherHawk,2013-01-14 03:53:00,
2013-01-13 20:58:00,-4.5,-11.2,29.83,SSE,148,3.0,0.0,72,0.00,,,0.00,0,WeatherHawk,2013-01-14 03:58:00,
2013-01-13 21:03:00,-4.7,-11.4,29.83,SE,144,3.0,0.0,72,0.00,,,0.00,0,WeatherHawk,2013-01-14 04:03:00,
2013-01-13 21:08:00,-4.7,-12.3,29.83,SSE,149,3.0,0.0,69,0.00,,,0.00,0,WeatherHawk,2013-01-14 04:08:00,
2013-01-13 21:13:00,-5.3,-12.8,29.83,SSE,157,2.0,0.0,69,0.00,,,0.00,0,WeatherHawk,2013-01-14 04:13:00,
2013-01-13 21:18:00,-6.2,-13.1,29.83,ESE,120,2.0,0.0,71,0.00,,,0.00,1,WeatherHawk,2013-01-14 04:18:00,
2013-01-13 21:23:00,-6.3,-13.0,29.83,ESE,111,4.0,0.0,72,0.00,,,0.00,0,WeatherHawk,2013-01-14 04:23:00,
2013-01-13 21:28:00,-6.2,-12.5,29.83,South,174,3.0,0.0,73,0.00,,,0.00,0,WeatherHawk,2013-01-14 04:28:00,
2013-01-13 21:33:00,-6.7,-13.3,29.83,East,89,3.0,0.0,72,0.00,,,0.00,1,WeatherHawk,2013-01-14 04:33:00,
2013-01-13 21:38:00,-6.9,-12.9,29.83,East,91,4.0,0.0,74,0.00,,,0.00,0,WeatherHawk,2013-01-14 04:38:00,
2013-01-13 21:43:00,-6.3,-12.2,29.83,East,90,2.0,0.0,75,0.00,,,0.00,0,WeatherHawk,2013-01-14 04:43:00,
2013-01-13 21:48:00,-6.3,-13.2,29.83,SSW,208,3.0,0.0,71,0.00,,,0.00,0,WeatherHawk,2013-01-14 04:48:00,
2013-01-13 21:53:00,-7.4,-14.6,29.83,NNE,12,4.0,0.0,70,0.00,,,0.00,0,WeatherHawk,2013-01-14 04:53:00,
2013-01-13 21:58:00,-8.3,-15.2,29.83,SE,140,2.0,0.0,71,0.00,,,0.00,0,WeatherHawk,2013-01-14 04:58:00,
2013-01-13 22:01:00,-8.3,-15.2,29.83,SE,131,3.0,0.0,71,0.00,,,0.00,0,WeatherHawk,2013-01-14 05:01:00,
2013-01-13 22:02:00,-8.3,-14.6,29.83,SSE,153,2.0,0.0,73,0.00,,,0.00,0,WeatherHawk,2013-01-14 05:02:00,
2013-01-13 22:03:00,-8.3,-14.6,29.83,SE,132,3.0,0.0,73,0.00,,,0.00,2,WeatherHawk,2013-01-14 05:03:00,
2013-01-13 22:08:00,-8.9,-15.7,29.83,SE,144,3.0,0.0,71,0.00,,,0.00,0,WeatherHawk,2013-01-14 05:08:00,
2013-01-13 22:09:00,-9.0,-15.9,29.83,SSE,152,3.0,0.0,71,0.00,,,0.00,0,WeatherHawk,2013-01-14 05:09:00,
2013-01-13 22:14:00,-8.9,-14.1,29.83,East,97,3.0,0.0,77,0.00,,,0.00,0,WeatherHawk,2013-01-14 05:14:00,
2013-01-13 22:19:00,-8.1,-14.2,29.83,SSE,159,4.0,0.0,74,0.00,,,0.00,0,WeatherHawk,2013-01-14 05:19:00,
2013-01-13 22:24:00,-8.7,-15.2,29.83,SSE,151,5.0,0.0,72,0.00,,,0.00,0,WeatherHawk,2013-01-14 05:24:00,
2013-01-13 22:29:00,-9.4,-15.4,29.83,SE,143,4.0,0.0,74,0.00,,,0.00,0,WeatherHawk,2013-01-14 05:29:00,
2013-01-13 22:34:00,-9.2,-15.2,29.83,SE,128,3.0,0.0,74,0.00,,,0.00,0,WeatherHawk,2013-01-14 05:34:00,
2013-01-13 22:39:00,-9.2,-15.0,29.83,ESE,113,3.0,0.0,75,0.00,,,0.00,0,WeatherHawk,2013-01-14 05:39:00,
2013-01-13 22:44:00,-9.0,-14.5,29.83,SE,138,4.0,0.0,76,0.00,,,0.00,0,WeatherHawk,2013-01-14 05:44:00,
2013-01-13 22:49:00,-9.0,-15.3,29.83,SSW,209,4.0,0.0,73,0.00,,,0.00,0,WeatherHawk,2013-01-14 05:49:00,
2013-01-13 22:54:00,-10.1,-17.2,29.83,SE,137,3.0,0.0,70,0.00,,,0.00,0,WeatherHawk,2013-01-14 05:54:00,
2013-01-13 22:59:00,-10.5,-15.9,29.84,ESE,121,4.0,0.0,76,0.00,,,0.00,0,WeatherHawk,2013-01-14 05:59:00,
2013-01-13 23:04:00,-9.4,-14.6,29.84,East,97,4.0,0.0,77,0.00,,,0.00,0,WeatherHawk,2013-01-14 06:04:00,
2013-01-13 23:09:00,-9.0,-14.8,29.84,ESE,121,3.0,0.0,75,0.00,,,0.00,0,WeatherHawk,2013-01-14 06:09:00,
2013-01-13 23:14:00,-9.0,-14.8,29.84,ESE,111,3.0,0.0,75,0.00,,,0.00,0,WeatherHawk,2013-01-14 06:14:00,
2013-01-13 23:19:00,-9.0,-14.5,29.84,ENE,70,2.0,0.0,76,0.00,,,0.00,0,WeatherHawk,2013-01-14 06:19:00,
2013-01-13 23:24:00,-9.0,-14.8,29.84,SE,125,4.0,0.0,75,0.00,,,0.00,0,WeatherHawk,2013-01-14 06:24:00,
2013-01-13 23:29:00,-10.1,-17.7,29.84,ESE,111,5.0,0.0,68,0.00,,,0.00,0,WeatherHawk,2013-01-14 06:29:00,
2013-01-13 23:34:00,-11.9,-18.9,29.84,SE,136,5.0,0.0,70,0.00,,,0.00,0,WeatherHawk,2013-01-14 06:34:00,
2013-01-13 23:39:00,-12.1,-18.0,29.84,SSE,159,6.0,0.0,74,0.00,,,0.00,0,WeatherHawk,2013-01-14 06:39:00,
2013-01-13 23:44:00,-11.7,-17.9,29.84,SSE,148,5.0,0.0,73,0.00,,,0.00,0,WeatherHawk,2013-01-14 06:44:00,
2013-01-13 23:49:00,-12.5,-18.9,29.84,SE,141,5.0,0.0,72,0.00,,,0.00,0,WeatherHawk,2013-01-14 06:49:00,
2013-01-13 23:54:00,-11.9,-17.3,29.84,ESE,108,6.0,0.0,76,0.00,,,0.00,0,WeatherHawk,2013-01-14 06:54:00,
2013-01-13 23:59:00,-11.4,-16.8,29.84,SE,124,4.0,0.0,76,0.00,,,0.00,0,WeatherHawk,2013-01-14 06:59:00,